contact: severine.martini@mio.osupytheas.fr, dominique.lefevre@mio.osupytheas.fr
Project:EMSO Ligure-ouest http://www.emso-fr.org/EMSO-France
Sensor Optode, line 4330 Serial 272 
DOI : "https://doi.org/10.17882/97948" 
Title:EMSO Ligure Ouest : Data BathyDock capteur Optode - deploiement "2023-04-28"
Datetime,Profondeur,Latitude,Longitude,optode_type,serial,O2_concentration,O2_saturation,Temperature,Calibrated_Phase,Temp_Compensated_Phase,phase_blue_light,phase_red_light,Amplitude_blue_light,Amplitude_red_light,thermistor_bridge
time,m,degree_north,degree_east,1,1,umol.l-1,%,degree_C,degree,degree,degree,degree,mV,mV,mV
2023-12-05T00:00:08,2420,42.8014,5.9826,4330,272,186.427,57.104,13.315,36.040,36.620,41.211,4.591,295.7,544.8,291.1
2023-12-05T00:03:07,2420,42.8014,5.9826,4330,272,186.474,57.115,13.313,36.038,36.618,41.206,4.588,295.7,544.9,291.1
2023-12-05T00:06:07,2420,42.8014,5.9826,4330,272,186.276,57.054,13.312,36.051,36.631,41.215,4.584,295.6,545.0,291.2
2023-12-05T00:09:07,2420,42.8014,5.9826,4330,272,186.392,57.086,13.310,36.045,36.625,41.217,4.593,295.6,544.9,291.2
2023-12-05T00:12:07,2420,42.8014,5.9826,4330,272,186.505,57.127,13.315,36.034,36.614,41.207,4.593,295.7,544.9,291.1
2023-12-05T00:15:07,2420,42.8014,5.9826,4330,272,186.441,57.109,13.316,36.038,36.618,41.205,4.587,295.6,544.9,291.0
2023-12-05T00:18:07,2420,42.8014,5.9826,4330,272,186.450,57.108,13.313,36.039,36.619,41.208,4.589,295.7,544.9,291.1
2023-12-05T00:21:07,2420,42.8014,5.9826,4330,272,186.553,57.139,13.313,36.032,36.612,41.208,4.595,295.6,544.9,291.1
2023-12-05T00:24:07,2420,42.8014,5.9826,4330,272,186.347,57.074,13.311,36.047,36.627,41.213,4.586,295.7,544.9,291.2
2023-12-05T00:27:08,2420,42.8014,5.9826,4330,272,186.432,57.100,13.311,36.041,36.621,41.210,4.589,295.6,544.9,291.2
2023-12-05T00:30:08,2420,42.8014,5.9826,4330,272,186.626,57.162,13.313,36.028,36.608,41.195,4.587,295.6,544.9,291.1
2023-12-05T00:33:07,2420,42.8014,5.9826,4330,272,186.397,57.091,13.312,36.043,36.623,41.213,4.591,295.6,544.9,291.1
2023-12-05T00:36:07,2420,42.8014,5.9826,4330,272,186.249,57.043,13.310,36.053,36.633,41.227,4.594,295.6,544.9,291.2
2023-12-05T00:39:07,2420,42.8014,5.9826,4330,272,186.694,57.184,13.314,36.022,36.602,41.195,4.592,295.6,544.9,291.1
2023-12-05T00:42:07,2420,42.8014,5.9826,4330,272,186.285,57.062,13.317,36.048,36.628,41.217,4.589,295.7,544.9,291.0
2023-12-05T00:45:08,2420,42.8014,5.9826,4330,272,186.410,57.100,13.316,36.040,36.620,41.208,4.588,295.7,545.0,291.0
2023-12-05T00:48:08,2420,42.8014,5.9826,4330,272,186.548,57.141,13.316,36.031,36.611,41.202,4.591,295.6,544.8,291.0
2023-12-05T00:51:08,2420,42.8014,5.9826,4330,272,186.784,57.216,13.317,36.015,36.595,41.187,4.592,295.6,544.9,291.0
2023-12-05T00:54:08,2420,42.8014,5.9826,4330,272,186.382,57.094,13.318,36.041,36.621,41.211,4.590,295.7,544.9,291.0
2023-12-05T00:57:08,2420,42.8014,5.9826,4330,272,186.681,57.180,13.314,36.023,36.603,41.201,4.597,295.7,544.8,291.1
2023-12-05T01:00:08,2420,42.8014,5.9826,4330,272,186.281,57.064,13.319,36.047,36.627,41.211,4.584,295.7,544.9,290.9
2023-12-05T01:03:07,2420,42.8014,5.9826,4330,272,186.409,57.100,13.316,36.040,36.620,41.210,4.590,295.7,544.9,291.0
2023-12-05T01:06:07,2420,42.8014,5.9826,4330,272,186.499,57.122,13.312,36.036,36.616,41.201,4.585,295.7,544.9,291.2
2023-12-05T01:09:07,2420,42.8014,5.9826,4330,272,186.458,57.109,13.311,36.040,36.620,41.210,4.590,295.7,545.0,291.2
2023-12-05T01:12:07,2420,42.8014,5.9826,4330,272,186.388,57.088,13.312,36.043,36.623,41.216,4.593,295.6,544.9,291.2
2023-12-05T01:15:07,2420,42.8014,5.9826,4330,272,186.550,57.138,13.312,36.032,36.613,41.202,4.590,295.7,544.9,291.2
2023-12-05T01:18:08,2420,42.8014,5.9826,4330,272,186.544,57.143,13.318,36.030,36.610,41.202,4.591,295.6,544.9,291.0
2023-12-05T01:21:08,2420,42.8014,5.9826,4330,272,186.602,57.161,13.318,36.027,36.607,41.198,4.591,295.8,544.9,291.0
2023-12-05T01:24:08,2420,42.8014,5.9826,4330,272,186.568,57.148,13.316,36.030,36.610,41.200,4.590,295.7,544.9,291.0
2023-12-05T01:27:08,2420,42.8014,5.9826,4330,272,186.653,57.171,13.314,36.025,36.605,41.197,4.592,295.7,544.9,291.1
2023-12-05T01:30:08,2420,42.8014,5.9826,4330,272,186.547,57.139,13.314,36.032,36.613,41.202,4.590,295.6,544.8,291.1
2023-12-05T01:33:07,2420,42.8014,5.9826,4330,272,186.526,57.137,13.317,36.032,36.612,41.202,4.590,295.7,544.9,291.0
2023-12-05T01:36:07,2420,42.8014,5.9826,4330,272,186.482,57.116,13.312,36.038,36.618,41.206,4.588,295.6,544.9,291.2
2023-12-05T01:39:07,2420,42.8014,5.9826,4330,272,186.205,57.041,13.319,36.052,36.632,41.220,4.588,295.7,544.9,290.9
2023-12-05T01:42:07,2420,42.8014,5.9826,4330,272,186.463,57.118,13.318,36.036,36.616,41.204,4.587,295.7,544.9,291.0
2023-12-05T01:45:07,2420,42.8014,5.9826,4330,272,186.496,57.137,13.324,36.030,36.610,41.205,4.594,295.6,544.8,290.8
2023-12-05T01:48:07,2420,42.8014,5.9826,4330,272,186.298,57.071,13.320,36.046,36.626,41.215,4.589,295.7,544.8,290.9
2023-12-05T01:51:08,2420,42.8014,5.9826,4330,272,186.645,57.177,13.320,36.022,36.602,41.195,4.593,295.7,544.8,290.9
2023-12-05T01:54:08,2420,42.8014,5.9826,4330,272,186.321,57.080,13.322,36.043,36.623,41.217,4.594,295.7,544.8,290.8
2023-12-05T01:57:08,2420,42.8014,5.9826,4330,272,186.358,57.088,13.319,36.042,36.622,41.214,4.592,295.7,544.8,290.9
2023-12-05T02:00:08,2420,42.8014,5.9826,4330,272,186.224,57.054,13.325,36.048,36.628,41.217,4.588,295.7,544.8,290.7
2023-12-05T02:03:07,2420,42.8014,5.9826,4330,272,186.348,57.089,13.322,36.041,36.621,41.209,4.588,295.7,544.8,290.8
2023-12-05T02:06:07,2420,42.8014,5.9826,4330,272,186.417,57.106,13.319,36.038,36.618,41.204,4.586,295.7,544.8,290.9
2023-12-05T02:09:07,2420,42.8014,5.9826,4330,272,186.479,57.129,13.322,36.033,36.613,41.200,4.587,295.7,544.8,290.8
2023-12-05T02:12:07,2420,42.8014,5.9826,4330,272,186.538,57.142,13.318,36.031,36.611,41.203,4.592,295.6,544.8,291.0
2023-12-05T02:15:07,2420,42.8014,5.9826,4330,272,186.374,57.090,13.317,36.042,36.622,41.211,4.589,295.8,544.9,291.0
2023-12-05T02:18:07,2420,42.8014,5.9826,4330,272,186.145,57.031,13.326,36.052,36.632,41.218,4.585,295.7,544.9,290.7
2023-12-05T02:21:08,2420,42.8014,5.9826,4330,272,186.545,57.142,13.316,36.032,36.612,41.201,4.590,295.8,544.8,291.0
2023-12-05T02:24:08,2420,42.8014,5.9826,4330,272,186.475,57.126,13.321,36.034,36.614,41.206,4.593,295.6,544.8,290.9
2023-12-05T02:27:08,2420,42.8014,5.9826,4330,272,186.342,57.084,13.320,36.043,36.623,41.214,4.591,295.7,544.9,290.9
2023-12-05T02:30:08,2420,42.8014,5.9826,4330,272,186.405,57.100,13.317,36.040,36.620,41.210,4.590,295.7,544.8,291.0
2023-12-05T02:33:07,2420,42.8014,5.9826,4330,272,186.514,57.136,13.319,36.032,36.612,41.199,4.588,295.7,544.8,290.9
2023-12-05T02:36:07,2420,42.8014,5.9826,4330,272,186.624,57.166,13.316,36.026,36.606,41.196,4.590,295.7,544.9,291.0
2023-12-05T02:39:07,2420,42.8014,5.9826,4330,272,186.513,57.137,13.320,36.031,36.611,41.205,4.594,295.7,544.8,290.9
2023-12-05T02:42:07,2420,42.8014,5.9826,4330,272,186.146,57.021,13.318,36.057,36.637,41.227,4.591,295.7,544.9,291.0
2023-12-05T02:45:08,2420,42.8014,5.9826,4330,272,186.523,57.134,13.315,36.033,36.613,41.207,4.594,295.7,544.8,291.1
2023-12-05T02:48:08,2420,42.8014,5.9826,4330,272,186.367,57.092,13.320,36.041,36.621,41.207,4.586,295.7,544.8,290.9
2023-12-05T02:51:08,2420,42.8014,5.9826,4330,272,186.214,57.037,13.314,36.054,36.634,41.225,4.591,295.7,544.9,291.1
2023-12-05T02:54:08,2420,42.8014,5.9826,4330,272,186.572,57.149,13.316,36.030,36.610,41.195,4.586,295.7,544.8,291.0
2023-12-05T02:57:08,2420,42.8014,5.9826,4330,272,186.487,57.121,13.314,36.036,36.616,41.209,4.593,295.8,544.9,291.1
2023-12-05T03:00:07,2420,42.8014,5.9826,4330,272,186.431,57.108,13.317,36.038,36.618,41.210,4.592,295.7,544.9,291.0
2023-12-05T03:03:07,2420,42.8014,5.9826,4330,272,186.319,57.074,13.318,36.046,36.626,41.219,4.593,295.7,544.8,291.0
2023-12-05T03:06:07,2420,42.8014,5.9826,4330,272,186.305,57.066,13.315,36.048,36.628,41.218,4.591,295.7,544.9,291.1
2023-12-05T03:09:07,2420,42.8014,5.9826,4330,272,186.343,57.078,13.315,36.045,36.625,41.215,4.590,295.8,545.0,291.1
2023-12-05T03:12:07,2420,42.8014,5.9826,4330,272,186.321,57.072,13.315,36.047,36.627,41.212,4.585,295.7,544.9,291.1
2023-12-05T03:15:08,2420,42.8014,5.9826,4330,272,186.200,57.031,13.313,36.056,36.635,41.228,4.593,295.7,544.9,291.1
2023-12-05T03:18:08,2420,42.8014,5.9826,4330,272,186.255,57.053,13.316,36.050,36.630,41.219,4.589,295.7,544.9,291.0
2023-12-05T03:21:08,2420,42.8014,5.9826,4330,272,186.475,57.120,13.316,36.036,36.616,41.208,4.592,295.7,544.9,291.0
2023-12-05T03:24:08,2420,42.8014,5.9826,4330,272,186.092,57.000,13.314,36.062,36.642,41.229,4.587,295.8,544.9,291.1
2023-12-05T03:27:08,2420,42.8014,5.9826,4330,272,186.507,57.123,13.311,36.036,36.616,41.205,4.589,295.6,544.9,291.2
2023-12-05T03:30:07,2420,42.8014,5.9826,4330,272,186.306,57.067,13.315,36.048,36.628,41.217,4.589,295.8,544.9,291.1
2023-12-05T03:33:07,2420,42.8014,5.9826,4330,272,186.319,57.077,13.320,36.045,36.625,41.210,4.586,295.6,544.8,290.9
2023-12-05T03:36:07,2420,42.8014,5.9826,4330,272,186.378,57.090,13.316,36.042,36.622,41.215,4.592,295.7,544.8,291.0
2023-12-05T03:39:07,2420,42.8014,5.9826,4330,272,186.287,57.062,13.316,36.048,36.628,41.214,4.586,295.7,544.8,291.0
2023-12-05T03:42:08,2420,42.8014,5.9826,4330,272,186.426,57.101,13.313,36.040,36.620,41.210,4.590,295.7,545.0,291.1
2023-12-05T03:45:08,2420,42.8014,5.9826,4330,272,186.455,57.106,13.310,36.040,36.620,41.215,4.595,295.8,544.9,291.2
2023-12-05T03:48:08,2420,42.8014,5.9826,4330,272,186.463,57.115,13.315,36.037,36.617,41.208,4.591,295.7,544.9,291.1
2023-12-05T03:51:08,2420,42.8014,5.9826,4330,272,186.209,57.035,13.313,36.055,36.634,41.220,4.585,295.7,544.9,291.1
2023-12-05T03:54:08,2420,42.8014,5.9826,4330,272,186.488,57.120,13.313,36.036,36.616,41.204,4.588,295.8,544.9,291.1
2023-12-05T03:57:07,2420,42.8014,5.9826,4330,272,186.416,57.098,13.313,36.041,36.621,41.214,4.593,295.7,544.8,291.1
2023-12-05T04:00:07,2420,42.8014,5.9826,4330,272,186.529,57.134,13.314,36.033,36.613,41.203,4.590,295.7,544.9,291.1
2023-12-05T04:03:07,2420,42.8014,5.9826,4330,272,186.331,57.072,13.313,36.047,36.627,41.220,4.593,295.7,544.8,291.1
2023-12-05T04:06:07,2420,42.8014,5.9826,4330,272,186.441,57.107,13.314,36.038,36.618,41.212,4.593,295.7,544.8,291.1
2023-12-05T04:09:07,2420,42.8014,5.9826,4330,272,186.399,57.092,13.313,36.042,36.622,41.212,4.590,295.7,544.9,291.1
2023-12-05T04:12:07,2420,42.8014,5.9826,4330,272,186.480,57.113,13.309,36.039,36.619,41.212,4.593,295.7,545.0,291.3
2023-12-05T04:15:08,2420,42.8014,5.9826,4330,272,186.513,57.124,13.310,36.036,36.616,41.203,4.587,295.7,544.9,291.2
2023-12-05T04:18:08,2420,42.8014,5.9826,4330,272,186.192,57.034,13.317,36.054,36.634,41.219,4.585,295.6,544.8,291.0
2023-12-05T04:21:08,2420,42.8014,5.9826,4330,272,186.503,57.126,13.314,36.035,36.615,41.206,4.591,295.7,544.9,291.1
2023-12-05T04:24:08,2420,42.8014,5.9826,4330,272,186.394,57.091,13.313,36.042,36.622,41.211,4.589,295.6,544.9,291.1
2023-12-05T04:27:08,2420,42.8014,5.9826,4330,272,186.414,57.099,13.315,36.041,36.621,41.211,4.590,295.6,544.9,291.1
2023-12-05T04:30:08,2420,42.8014,5.9826,4330,272,186.384,57.086,13.311,36.044,36.624,41.220,4.597,295.7,544.8,291.2
2023-12-05T04:33:07,2420,42.8014,5.9826,4330,272,186.504,57.126,13.314,36.035,36.615,41.208,4.593,295.7,544.9,291.1
2023-12-05T04:36:07,2420,42.8014,5.9826,4330,272,186.259,57.048,13.311,36.052,36.632,41.223,4.591,295.7,544.9,291.2
2023-12-05T04:39:07,2420,42.8014,5.9826,4330,272,186.413,57.096,13.312,36.042,36.622,41.211,4.589,295.7,544.9,291.2
2023-12-05T04:42:07,2420,42.8014,5.9826,4330,272,186.499,57.121,13.311,36.037,36.617,41.211,4.595,295.7,544.9,291.2
2023-12-05T04:45:08,2420,42.8014,5.9826,4330,272,186.689,57.182,13.313,36.023,36.603,41.193,4.590,295.7,544.9,291.1
2023-12-05T04:48:08,2420,42.8014,5.9826,4330,272,186.365,57.078,13.310,36.046,36.626,41.215,4.590,295.7,544.9,291.2
2023-12-05T04:51:08,2420,42.8014,5.9826,4330,272,186.367,57.080,13.311,36.046,36.626,41.211,4.585,295.6,544.9,291.2
2023-12-05T04:54:08,2420,42.8014,5.9826,4330,272,186.616,57.157,13.311,36.029,36.609,41.203,4.594,295.7,544.9,291.2
2023-12-05T04:57:07,2420,42.8014,5.9826,4330,272,186.288,57.059,13.313,36.050,36.630,41.219,4.589,295.7,545.0,291.1
2023-12-05T05:00:07,2420,42.8014,5.9826,4330,272,186.358,57.085,13.317,36.043,36.623,41.205,4.582,295.7,544.9,291.0
2023-12-05T05:03:07,2420,42.8014,5.9826,4330,272,186.312,57.066,13.313,36.048,36.628,41.213,4.586,295.6,544.9,291.1
2023-12-05T05:06:07,2420,42.8014,5.9826,4330,272,186.504,57.123,13.312,36.036,36.616,41.206,4.590,295.6,544.9,291.2
2023-12-05T05:09:07,2420,42.8014,5.9826,4330,272,186.422,57.095,13.309,36.043,36.623,41.216,4.594,295.7,545.0,291.2
2023-12-05T05:12:07,2420,42.8014,5.9826,4330,272,186.658,57.171,13.312,36.026,36.606,41.191,4.585,295.7,545.0,291.2
2023-12-05T05:15:07,2420,42.8014,5.9826,4330,272,186.513,57.127,13.313,36.035,36.615,41.205,4.590,295.7,544.9,291.1
2023-12-05T05:18:07,2420,42.8014,5.9826,4330,272,186.391,57.088,13.311,36.044,36.624,41.210,4.586,295.8,545.0,291.2
2023-12-05T05:21:07,2420,42.8014,5.9826,4330,272,186.479,57.115,13.311,36.038,36.618,41.209,4.591,295.7,544.9,291.2
2023-12-05T05:24:08,2420,42.8014,5.9826,4330,272,186.381,57.083,13.310,36.045,36.625,41.216,4.591,295.7,544.9,291.2
2023-12-05T05:27:08,2420,42.8014,5.9826,4330,272,186.488,57.118,13.312,36.038,36.618,41.208,4.591,295.7,544.9,291.2
2023-12-05T05:30:08,2420,42.8014,5.9826,4330,272,186.529,57.135,13.315,36.033,36.613,41.205,4.591,295.7,544.9,291.1
2023-12-05T05:33:07,2420,42.8014,5.9826,4330,272,186.610,57.155,13.311,36.029,36.609,41.202,4.592,295.6,544.9,291.2
2023-12-05T05:36:07,2420,42.8014,5.9826,4330,272,186.455,57.111,13.314,36.038,36.618,41.206,4.588,295.7,544.8,291.1
2023-12-05T05:39:07,2420,42.8014,5.9826,4330,272,186.407,57.093,13.311,36.043,36.623,41.212,4.589,295.8,544.8,291.2
2023-12-05T05:42:07,2420,42.8014,5.9826,4330,272,186.384,57.090,13.314,36.043,36.623,41.215,4.592,295.7,544.9,291.1
2023-12-05T05:45:07,2420,42.8014,5.9826,4330,272,186.265,57.052,13.313,36.051,36.631,41.213,4.582,295.6,544.9,291.1
2023-12-05T05:48:08,2420,42.8014,5.9826,4330,272,186.386,57.089,13.313,36.043,36.623,41.211,4.588,295.7,544.9,291.1
2023-12-05T05:51:08,2420,42.8014,5.9826,4330,272,186.432,57.101,13.312,36.041,36.621,41.213,4.592,295.7,545.0,291.2
2023-12-05T05:54:08,2420,42.8014,5.9826,4330,272,186.808,57.215,13.310,36.017,36.597,41.190,4.593,295.7,544.9,291.2
2023-12-05T05:57:08,2420,42.8014,5.9826,4330,272,186.192,57.027,13.311,36.057,36.637,41.224,4.587,295.8,544.9,291.2
2023-12-05T06:00:07,2420,42.8014,5.9826,4330,272,186.467,57.112,13.312,36.038,36.618,41.209,4.591,295.7,545.0,291.2
2023-12-05T06:03:07,2420,42.8014,5.9826,4330,272,186.355,57.075,13.310,36.047,36.627,41.216,4.589,295.7,544.9,291.2
2023-12-05T06:06:07,2420,42.8014,5.9826,4330,272,186.387,57.086,13.311,36.045,36.625,41.215,4.590,295.7,545.0,291.2
2023-12-05T06:09:07,2420,42.8014,5.9826,4330,272,186.468,57.112,13.311,36.038,36.618,41.208,4.590,295.7,544.9,291.2
2023-12-05T06:12:07,2420,42.8014,5.9826,4330,272,186.738,57.191,13.309,36.022,36.602,41.193,4.591,295.7,545.0,291.3
2023-12-05T06:15:08,2420,42.8014,5.9826,4330,272,186.378,57.082,13.310,36.045,36.625,41.213,4.588,295.6,544.9,291.2
2023-12-05T06:18:08,2420,42.8014,5.9826,4330,272,186.508,57.123,13.311,36.036,36.617,41.208,4.591,295.6,545.0,291.2
2023-12-05T06:21:08,2420,42.8014,5.9826,4330,272,186.447,57.105,13.311,36.040,36.620,41.212,4.592,295.7,544.9,291.2
2023-12-05T06:24:08,2420,42.8014,5.9826,4330,272,186.562,57.140,13.311,36.033,36.613,41.202,4.590,295.7,545.0,291.2
2023-12-05T06:27:08,2420,42.8014,5.9826,4330,272,186.570,57.140,13.309,36.033,36.613,41.208,4.595,295.6,544.9,291.3
2023-12-05T06:30:07,2420,42.8014,5.9826,4330,272,186.532,57.129,13.310,36.035,36.615,41.206,4.590,295.6,545.0,291.2
2023-12-05T06:33:07,2420,42.8014,5.9826,4330,272,186.596,57.150,13.311,36.031,36.611,41.200,4.589,295.7,545.0,291.2
2023-12-05T06:36:07,2420,42.8014,5.9826,4330,272,186.647,57.164,13.309,36.028,36.608,41.199,4.591,295.7,544.9,291.3
2023-12-05T06:39:07,2420,42.8014,5.9826,4330,272,186.567,57.139,13.309,36.034,36.614,41.204,4.591,295.7,545.0,291.3
2023-12-05T06:42:08,2420,42.8014,5.9826,4330,272,186.429,57.098,13.310,36.042,36.622,41.211,4.590,295.7,544.9,291.2
2023-12-05T06:45:08,2420,42.8014,5.9826,4330,272,186.541,57.133,13.310,36.034,36.614,41.209,4.595,295.7,545.0,291.2
2023-12-05T06:48:08,2420,42.8014,5.9826,4330,272,186.455,57.105,13.309,36.040,36.620,41.210,4.590,295.7,544.9,291.3
2023-12-05T06:51:08,2420,42.8014,5.9826,4330,272,186.516,57.127,13.312,36.036,36.616,41.202,4.586,295.6,544.9,291.2
2023-12-05T06:54:07,2420,42.8014,5.9826,4330,272,186.475,57.112,13.310,36.039,36.619,41.205,4.586,295.6,544.9,291.2
2023-12-05T06:57:07,2420,42.8014,5.9826,4330,272,186.739,57.191,13.308,36.023,36.603,41.194,4.591,295.7,544.9,291.3
2023-12-05T07:00:07,2420,42.8014,5.9826,4330,272,186.613,57.155,13.310,36.029,36.609,41.199,4.590,295.6,544.9,291.2
2023-12-05T07:03:07,2420,42.8014,5.9826,4330,272,186.571,57.142,13.310,36.033,36.613,41.202,4.589,295.6,544.9,291.2
2023-12-05T07:06:08,2420,42.8014,5.9826,4330,272,186.351,57.073,13.309,36.047,36.627,41.213,4.585,295.6,544.9,291.2
2023-12-05T07:09:08,2420,42.8014,5.9826,4330,272,186.594,57.151,13.311,36.030,36.610,41.207,4.596,295.7,545.0,291.2
2023-12-05T07:12:08,2420,42.8014,5.9826,4330,272,186.751,57.194,13.308,36.022,36.602,41.196,4.593,295.6,544.9,291.3
2023-12-05T07:15:07,2420,42.8014,5.9826,4330,272,186.619,57.154,13.309,36.030,36.610,41.202,4.592,295.6,545.0,291.3
2023-12-05T07:18:08,2420,42.8014,5.9826,4330,272,186.718,57.186,13.309,36.023,36.604,41.195,4.592,295.7,544.9,291.3
2023-12-05T07:21:08,2420,42.8014,5.9826,4330,272,186.675,57.171,13.308,36.026,36.607,41.199,4.592,295.6,545.0,291.3
2023-12-05T07:24:08,2420,42.8014,5.9826,4330,272,186.615,57.152,13.308,36.031,36.611,41.199,4.588,295.6,544.9,291.3
2023-12-05T07:27:07,2420,42.8014,5.9826,4330,272,186.602,57.150,13.309,36.030,36.611,41.201,4.591,295.6,544.9,291.2
2023-12-05T07:30:07,2420,42.8014,5.9826,4330,272,186.646,57.163,13.309,36.028,36.609,41.204,4.595,295.5,544.9,291.3
2023-12-05T07:33:08,2420,42.8014,5.9826,4330,272,186.767,57.203,13.311,36.019,36.599,41.194,4.595,295.6,544.9,291.2
2023-12-05T07:36:07,2420,42.8014,5.9826,4330,272,186.615,57.155,13.310,36.029,36.610,41.197,4.587,295.7,544.9,291.2
2023-12-05T07:39:07,2420,42.8014,5.9826,4330,272,186.455,57.103,13.308,36.041,36.621,41.211,4.590,295.6,545.0,291.3
2023-12-05T07:42:07,2420,42.8014,5.9826,4330,272,186.522,57.124,13.308,36.037,36.617,41.201,4.584,295.6,545.0,291.3
2023-12-05T07:45:07,2420,42.8014,5.9826,4330,272,186.495,57.116,13.308,36.038,36.618,41.203,4.584,295.6,545.0,291.3
2023-12-05T07:48:08,2420,42.8014,5.9826,4330,272,186.596,57.145,13.307,36.032,36.612,41.204,4.592,295.6,545.0,291.3
2023-12-05T07:51:08,2420,42.8014,5.9826,4330,272,186.634,57.158,13.308,36.030,36.610,41.202,4.593,295.7,545.0,291.3
2023-12-05T07:54:08,2420,42.8014,5.9826,4330,272,186.687,57.173,13.307,36.027,36.607,41.198,4.591,295.6,545.0,291.3
2023-12-05T07:57:08,2420,42.8014,5.9826,4330,272,186.906,57.242,13.308,36.012,36.592,41.183,4.592,295.6,544.9,291.3
2023-12-05T08:00:07,2420,42.8014,5.9826,4330,272,186.495,57.113,13.306,36.040,36.620,41.208,4.589,295.6,545.0,291.4
2023-12-05T08:03:07,2420,42.8014,5.9826,4330,272,186.759,57.193,13.305,36.023,36.603,41.192,4.589,295.6,544.9,291.4
2023-12-05T08:06:07,2420,42.8014,5.9826,4330,272,186.626,57.154,13.306,36.031,36.611,41.204,4.593,295.6,545.0,291.3
2023-12-05T08:09:07,2420,42.8014,5.9826,4330,272,186.593,57.143,13.306,36.033,36.614,41.204,4.591,295.6,545.0,291.4
2023-12-05T08:12:08,2420,42.8014,5.9826,4330,272,186.592,57.143,13.306,36.033,36.613,41.202,4.589,295.5,545.0,291.3
2023-12-05T08:15:07,2420,42.8014,5.9826,4330,272,186.779,57.202,13.307,36.020,36.601,41.192,4.592,295.6,545.0,291.3
2023-12-05T08:18:07,2420,42.8014,5.9826,4330,272,186.823,57.217,13.309,36.017,36.597,41.185,4.589,295.6,544.9,291.3
2023-12-05T08:21:07,2420,42.8014,5.9826,4330,272,186.545,57.129,13.306,36.036,36.616,41.206,4.590,295.6,545.0,291.4
2023-12-05T08:24:07,2420,42.8014,5.9826,4330,272,186.473,57.106,13.306,36.041,36.621,41.206,4.585,295.6,544.9,291.4
2023-12-05T08:27:08,2420,42.8014,5.9826,4330,272,186.626,57.153,13.305,36.031,36.611,41.199,4.588,295.6,544.9,291.4
2023-12-05T08:30:08,2420,42.8014,5.9826,4330,272,186.746,57.188,13.305,36.023,36.604,41.193,4.590,295.7,545.1,291.4
2023-12-05T08:33:07,2420,42.8014,5.9826,4330,272,186.502,57.115,13.306,36.039,36.619,41.206,4.587,295.7,544.9,291.4
2023-12-05T08:36:07,2420,42.8014,5.9826,4330,272,186.795,57.205,13.306,36.020,36.600,41.194,4.594,295.6,544.9,291.3
2023-12-05T08:39:07,2420,42.8014,5.9826,4330,272,186.616,57.153,13.308,36.031,36.611,41.201,4.591,295.7,545.0,291.3
2023-12-05T08:42:07,2420,42.8014,5.9826,4330,272,186.715,57.181,13.306,36.025,36.605,41.199,4.594,295.6,544.9,291.3
2023-12-05T08:45:07,2420,42.8014,5.9826,4330,272,186.329,57.065,13.309,36.049,36.629,41.215,4.587,295.6,544.9,291.3
2023-12-05T08:48:07,2420,42.8014,5.9826,4330,272,186.440,57.099,13.308,36.042,36.622,41.210,4.588,295.6,545.0,291.3
2023-12-05T08:51:07,2420,42.8014,5.9826,4330,272,186.831,57.220,13.309,36.016,36.596,41.191,4.594,295.7,545.0,291.3
2023-12-05T08:54:08,2420,42.8014,5.9826,4330,272,186.653,57.164,13.308,36.028,36.608,41.202,4.594,295.5,545.0,291.3
2023-12-05T08:57:08,2420,42.8014,5.9826,4330,272,186.438,57.103,13.312,36.040,36.620,41.209,4.589,295.6,545.0,291.2
2023-12-05T09:00:08,2420,42.8014,5.9826,4330,272,186.592,57.147,13.309,36.032,36.612,41.203,4.591,295.7,544.9,291.3
2023-12-05T09:03:07,2420,42.8014,5.9826,4330,272,186.734,57.189,13.308,36.023,36.603,41.194,4.591,295.6,544.9,291.3
2023-12-05T09:06:07,2420,42.8014,5.9826,4330,272,186.556,57.137,13.310,36.034,36.614,41.210,4.597,295.6,544.9,291.2
2023-12-05T09:09:07,2420,42.8014,5.9826,4330,272,186.624,57.158,13.310,36.029,36.609,41.196,4.586,295.7,544.9,291.2
2023-12-05T09:12:08,2420,42.8014,5.9826,4330,272,186.499,57.117,13.308,36.038,36.618,41.203,4.585,295.7,545.0,291.3
2023-12-05T09:15:08,2420,42.8014,5.9826,4330,272,186.512,57.119,13.307,36.038,36.618,41.208,4.590,295.7,545.0,291.3
2023-12-05T09:18:08,2420,42.8014,5.9826,4330,272,186.518,57.121,13.306,36.038,36.618,41.204,4.586,295.6,545.0,291.3
2023-12-05T09:21:07,2420,42.8014,5.9826,4330,272,186.559,57.135,13.308,36.034,36.614,41.206,4.592,295.6,544.9,291.3
2023-12-05T09:24:07,2420,42.8014,5.9826,4330,272,186.841,57.222,13.308,36.016,36.596,41.188,4.592,295.6,545.0,291.3
2023-12-05T09:27:08,2420,42.8014,5.9826,4330,272,186.497,57.116,13.308,36.038,36.618,41.209,4.590,295.6,545.0,291.3
2023-12-05T09:30:08,2420,42.8014,5.9826,4330,272,186.444,57.100,13.308,36.042,36.622,41.212,4.590,295.6,545.0,291.3
2023-12-05T09:33:08,2420,42.8014,5.9826,4330,272,186.874,57.229,13.306,36.015,36.595,41.188,4.593,295.6,545.0,291.4
2023-12-05T09:36:08,2420,42.8014,5.9826,4330,272,186.621,57.152,13.306,36.031,36.611,41.200,4.588,295.6,545.0,291.4
2023-12-05T09:39:08,2420,42.8014,5.9826,4330,272,186.734,57.187,13.306,36.024,36.604,41.194,4.590,295.6,545.1,291.3
2023-12-05T09:42:07,2420,42.8014,5.9826,4330,272,186.817,57.212,13.306,36.018,36.598,41.196,4.597,295.7,545.0,291.4
2023-12-05T09:45:07,2420,42.8014,5.9826,4330,272,186.317,57.059,13.307,36.051,36.630,41.222,4.591,295.6,545.1,291.3
2023-12-05T09:48:07,2420,42.8014,5.9826,4330,272,186.677,57.170,13.307,36.027,36.607,41.193,4.586,295.6,545.0,291.3
2023-12-05T09:51:07,2420,42.8014,5.9826,4330,272,186.596,57.144,13.306,36.033,36.613,41.200,4.587,295.6,545.0,291.4
2023-12-05T09:54:08,2420,42.8014,5.9826,4330,272,186.322,57.059,13.305,36.051,36.630,41.219,4.589,295.7,545.0,291.4
2023-12-05T09:57:08,2420,42.8014,5.9826,4330,272,186.268,57.043,13.306,36.054,36.634,41.217,4.582,295.6,545.0,291.4
2023-12-05T10:00:08,2420,42.8014,5.9826,4330,272,186.574,57.139,13.307,36.034,36.614,41.200,4.586,295.6,544.9,291.3